Flag for Canada Weather past 2 weeks in Calgary, Alberta, Canada

Now
27 °F

Partly sunny.


Feels Like: 27 °F
Forecast: 24 / 34 °F
Wind: No wind

Location: Calgary International

Current Time: Dec 22, 2014 at 9:40:34 AM

Latest Report: Dec 22, 2014 at 9:00 AM


Visibility: 40 mi

Pressure: 29.96 "Hg

Humidity: 69%

Dew point: 18 °F

Location of CalgaryLocation

Historic Weather in Calgary — Graph

°F

Calgary temperature yesterday

Maximum temperature yesterday: 41 °F (at 6:00 AM)
Minimum temperature yesterday: 25 °F (at 11:00 PM)
Average temperature yesterday: 33 °F

Past Weeks' High & Low Weather Summary

 TemperatureHumidityPressure
High52 °F (Dec 11, 3:00 AM)93% (Dec 7, 8:00 AM)30.42 "Hg (Dec 7, 8:00 AM)
Low10 °F (Dec 16, 9:00 AM)29% (Dec 11, 8:00 AM)29.24 "Hg (Dec 21, 6:00 AM)
Average32 °F69%29.90 "Hg
* Reported Dec 7 8:00 AM — Dec 22 8:00 AM, Calgary, Weather by CustomWeather, © 2014

Note: Actual official high and low records may vary slightly from our data, if they occured in-between our weather recording intervals... More about our weather records

Advertising

Calgary weather history for previous 24 hours

 ConditionsComfort  
Time TempWeatherWind HumidityBarometerVisibility
8:00 AM
Dec 22
27 °FPartly cloudy.2 mph69%29.93 "Hg15 mi
7:00 AM25 °FPassing clouds.3 mph69%29.91 "Hg15 mi
6:00 AM21 °FPassing clouds.6 mph80%29.89 "Hg15 mi
5:00 AM21 °FPassing clouds.3 mph80%29.87 "Hg15 mi
4:00 AM19 °FPassing clouds.3 mph86%29.84 "Hg15 mi
3:00 AM23 °FPartly cloudy.2 mph86%29.81 "Hg15 mi
2:00 AM25 °FOvercast.No wind80%29.80 "Hg15 mi
1:00 AM25 °FOvercast.3 mph86%29.78 "Hg15 mi
12:00 AM23 °FPassing clouds.No wind86%29.78 "Hg15 mi
11:00 PM
Dec 21
25 °FPassing clouds.No wind86%29.76 "Hg15 mi
10:00 PM28 °FPassing clouds.5 mph86%29.75 "Hg15 mi
9:00 PM28 °FPassing clouds.No wind80%29.73 "Hg15 mi
8:00 PM28 °FPassing clouds.No wind80%29.70 "Hg15 mi
7:00 PM28 °FPassing clouds.2 mph86%29.68 "Hg15 mi
6:00 PM30 °FPassing clouds.3 mph80%29.66 "Hg15 mi
5:00 PM30 °FPassing clouds.2 mph80%29.66 "Hg30 mi
4:00 PM37 °FScattered clouds.13 mph65%29.62 "Hg40 mi
3:00 PM39 °FBroken clouds.14 mph61%29.57 "Hg40 mi
2:00 PM37 °FPartly sunny.6 mph65%29.51 "Hg40 mi
1:00 PM39 °FPartly sunny.5 mph56%29.48 "Hg40 mi
12:00 PM39 °FPartly sunny.10 mph52%29.45 "Hg40 mi
11:00 AM41 °FBroken clouds.13 mph45%29.42 "Hg40 mi
10:00 AM37 °FPartly sunny.12 mph52%29.39 "Hg40 mi
9:00 AM34 °FPartly sunny.10 mph65%29.35 "Hg40 mi
Weather by CustomWeather, © 2014

See weather overviewHow to use our weather pages